EW1088 Weather Reports


Display with metric or nautical units.
time (UTC)temp
F
wind
direction
speed
MPH
gust
MPH
rain 1hr
in
rain 24hr
in
rain mn
in
humidity
%
barometer
mb
20260508012610 46 324 3.0 6.0 0.00 0.32 0.11 64 1014.5
20260508012606 46 59 2.0 5.0 0.00 0.32 0.11 65 1014.4
20260508011606 46 329 2.0 6.0 0.00 0.32 0.11 63 1014.5
20260508011106 46 297 2.0 4.0 0.00 0.32 0.11 63 1014.5
20260508010604 46 297 2.0 4.0 0.00 0.32 0.11 63 1014.6
20260508010105 46 280 2.0 4.0 0.00 0.32 0.11 63 1014.6
20260508005605 46 299 2.0 5.0 0.00 0.32 0.11 62 1014.7
20260508005108 46 320 2.0 5.0 0.00 0.32 0.11 62 1014.7
20260508005104 46 280 2.0 5.0 0.00 0.32 0.11 64 1014.7
20260508004103 46 320 1.0 4.0 0.00 0.32 0.11 64 1014.8
20260508003602 46 320 1.0 4.0 0.00 0.33 0.11 65 1014.8
20260508003102 46 294 1.0 5.0 0.00 0.33 0.11 65 1014.8
20260508002602 45 297 1.0 5.0 0.00 0.33 0.11 65 1014.9
20260508002106 45 28 2.0 4.0 0.00 0.33 0.11 66 1015.0
20260508002102 45 320 1.0 4.0 0.00 0.33 0.11 66 1014.9
20260508001102 45 314 3.0 5.0 0.00 0.33 0.11 66 1015.1
20260508000602 45 303 3.0 5.0 0.00 0.33 0.11 67 1015.1
20260507235602 45 297 2.0 7.0 0.00 0.34 0.11 67 1015.1
20260507235102 45 285 1.0 6.0 0.00 0.34 0.11 66 1015.2
20260507234601 45 344 2.0 6.0 0.00 0.34 0.11 66 1015.2
20260507234101 45 288 3.0 7.0 0.00 0.35 0.11 68 1015.3
20260507233556 45 316 3.0 7.0 0.00 0.35 0.11 67 1015.3
20260507233056 45 326 4.0 9.0 0.00 0.35 0.11 68 1015.3
20260507232557 45 283 3.0 9.0 0.00 0.35 0.11 68 1015.4
20260507232055 45 290 4.0 10.0 0.00 0.35 0.11 69 1015.3
20260507232050 45 294 3.0 7.0 0.00 0.35 0.11 69 1015.4
20260507231046 45 272 4.0 10.0 0.00 0.35 0.11 69 1015.4
20260507230550 45 276 4.0 7.0 0.00 0.35 0.11 68 1015.4
20260507230546 45 347 4.0 7.0 0.00 0.35 0.11 68 1015.4
20260507225541 45 292 4.0 7.0 0.00 0.35 0.11 67 1015.5
20260507225041 45 293 3.0 7.0 0.00 0.35 0.11 68 1015.6
20260507224542 45 279 3.0 7.0 0.00 0.35 0.11 68 1015.6
20260507224042 44 287 3.0 7.0 0.00 0.35 0.11 69 1015.6
20260507223542 44 299 3.0 7.0 0.00 0.35 0.11 66 1015.6
20260507223041 44 267 4.0 8.0 0.00 0.35 0.11 68 1015.7
20260507222541 44 266 4.0 8.0 0.00 0.35 0.11 66 1015.7
20260507222043 44 295 3.0 6.0 0.00 0.35 0.11 67 1015.8
20260507222038 44 302 3.0 6.0 0.00 0.35 0.11 65 1015.8
20260507221641 45 266 3.0 7.0 0.00 0.35 0.11 63 1015.8
20260507220536 46 249 1.0 7.0 0.00 0.35 0.11 61 1015.8
20260507220038 46 181 1.0 4.0 0.00 0.35 0.11 62 1015.8
20260507220034 46 185 1.0 4.0 0.00 0.35 0.11 63 1015.8
20260507215034 46 338 1.0 4.0 0.00 0.35 0.11 65 1015.8
20260507214534 46 13 1.0 4.0 0.00 0.35 0.11 65 1015.8
20260507214034 46 289 2.0 4.0 0.00 0.35 0.11 63 1015.9
20260507213535 46 332 2.0 4.0 0.00 0.35 0.11 64 1015.9
20260507213033 46 324 1.0 3.0 0.00 0.35 0.11 65 1015.9
20260507212532 46 307 1.0 3.0 0.00 0.35 0.11 65 1016.0
20260507212032 45 167 1.0 4.0 0.00 0.35 0.11 67 1016.0
20260507211532 44 316 3.0 6.0 0.00 0.35 0.11 67 1016.1
20260507211031 44 279 3.0 6.0 0.00 0.35 0.11 65 1016.1
20260507210531 44 308 2.0 5.0 0.00 0.35 0.11 66 1016.2
20260507210036 44 71 1.0 5.0 0.00 0.35 0.11 65 1016.2
20260507210032 44 270 1.0 5.0 0.00 0.35 0.11 66 1016.2
20260507205028 44 143 1.0 5.0 0.00 0.35 0.11 65 1016.3
20260507204528 44 343 1.0 6.0 0.00 0.35 0.11 65 1016.3
20260507204028 44 345 2.0 6.0 0.00 0.35 0.11 68 1016.4
20260507203531 44 24 2.0 5.0 0.00 0.35 0.11 68 1016.4
20260507203527 44 14 2.0 5.0 0.00 0.35 0.11 67 1016.4
20260507202528 43 324 2.0 4.0 0.00 0.35 0.11 68 1016.5
20260507202028 43 324 2.0 4.0 0.00 0.35 0.11 68 1016.6
20260507201527 43 292 2.0 4.0 0.00 0.35 0.11 69 1016.6
20260507201027 43 278 2.0 5.0 0.00 0.35 0.11 69 1016.5
20260507200527 43 6 1.0 5.0 0.00 0.35 0.11 70 1016.6
20260507200027 43 329 1.0 4.0 0.00 0.35 0.11 72 1016.5
20260507195528 43 329 1.0 4.0 0.00 0.35 0.11 71 1016.6
20260507195028 43 337 2.0 5.0 0.00 0.35 0.11 72 1016.6
20260507194528 43 336 1.0 5.0 0.00 0.35 0.11 72 1016.6
20260507194028 43 31 1.0 5.0 0.00 0.35 0.11 74 1016.8
20260507193528 42 6 1.0 5.0 0.00 0.35 0.11 74 1016.8
20260507193028 42 119 2.0 6.0 0.00 0.35 0.11 78 1016.8
20260507192527 42 78 2.0 6.0 0.00 0.35 0.11 77 1016.8
20260507192028 42 356 2.0 4.0 0.00 0.35 0.11 78 1016.9
20260507191529 41 133 3.0 5.0 0.00 0.35 0.11 82 1017.0
20260507191525 41 144 2.0 4.0 0.00 0.35 0.11 81 1017.0
20260507190526 40 127 2.0 5.0 0.00 0.35 0.11 81 1017.0
20260507190030 40 149 2.0 5.0 0.00 0.35 0.11 86 1017.0
20260507190026 41 140 2.0 4.0 0.00 0.35 0.11 84 1017.0
20260507185030 40 134 2.0 6.0 0.00 0.35 0.11 86 1017.0
20260507185026 40 141 2.0 6.0 0.00 0.35 0.11 86 1017.0
20260507184631 40 149 1.0 4.0 0.00 0.35 0.11 87 1017.0
20260507183526 39 125 1.0 3.0 0.00 0.35 0.11 88 1016.9
20260507183020 39 125 2.0 4.0 0.00 0.35 0.11 88 1016.9
20260507182518 39 124 2.0 4.0 0.00 0.35 0.11 89 1016.9
20260507182016 39 150 2.0 4.0 0.00 0.35 0.11 89 1017.0
20260507181515 39 136 2.0 4.0 0.00 0.35 0.11 89 1016.9
20260507181015 39 147 2.0 4.0 0.00 0.35 0.11 90 1016.9
20260507180516 39 154 2.0 4.0 0.00 0.35 0.11 90 1016.9
20260507180015 38 128 2.0 3.0 0.00 0.35 0.11 91 1016.9
20260507175515 38 121 1.0 4.0 0.00 0.35 0.11 91 1016.9
20260507175010 38 118 1.0 4.0 0.00 0.35 0.11 91 1016.9
20260507174509 38 122 1.0 3.0 0.00 0.35 0.11 92 1016.9
20260507174003 38 122 1.0 4.0 0.00 0.35 0.11 92 1017.0
20260507173502 38 122 1.0 4.0 0.00 0.35 0.11 92 1016.9
20260507172959 38 121 1.0 4.0 0.00 0.35 0.11 92 1017.0
20260507172459 38 121 2.0 4.0 0.00 0.35 0.11 92 1017.0
20260507172000 38 129 1.0 3.0 0.00 0.35 0.11 93 1017.0
20260507171503 38 129 2.0 4.0 0.00 0.35 0.11 94 1016.9
20260507171459 38 129 1.0 3.0 0.00 0.35 0.11 94 1017.0
20260507170459 38 129 2.0 4.0 0.00 0.35 0.11 95 1017.0
20260507170454 38 50 1.0 4.0 0.00 0.35 0.11 95 1017.0
20260507165457 38 33 2.0 4.0 0.00 0.35 0.11 95 1017.0
20260507165453 38 36 2.0 4.0 0.00 0.35 0.11 95 1017.1
20260507164457 38 356 1.0 3.0 0.00 0.35 0.11 95 1017.2
20260507164453 38 356 1.0 4.0 0.00 0.35 0.11 95 1017.1
20260507163451 37 356 2.0 4.0 0.00 0.35 0.11 95 1017.1
20260507162949 37 356 2.0 4.0 0.00 0.35 0.11 95 1017.1
20260507162448 37 29 2.0 3.0 0.00 0.35 0.11 95 1017.2
20260507161948 37 29 2.0 5.0 0.00 0.35 0.11 95 1017.1
20260507161943 37 29 2.0 3.0 0.00 0.35 0.11 95 1017.2
20260507160941 37 55 2.0 5.0 0.00 0.35 0.11 95 1017.1
20260507160439 37 28 1.0 4.0 0.00 0.35 0.11 95 1017.2
20260507155937 37 28 0.0 3.0 0.00 0.35 0.11 96 1017.2
20260507155437 37 28 1.0 3.0 0.00 0.35 0.11 96 1017.1
20260507154937 37 28 0.0 2.0 0.00 0.35 0.11 96 1017.2
20260507154433 36 29 0.0 2.0 0.00 0.35 0.11 96 1017.1
20260507153933 36 29 1.0 3.0 0.01 0.35 0.11 95 1017.2
20260507153437 36 29 1.0 3.0 0.01 0.35 0.11 95 1017.1
20260507153433 36 29 1.0 3.0 0.01 0.35 0.11 95 1017.1
20260507152433 36 6 1.0 3.0 0.01 0.35 0.11 95 1017.1
20260507151931 36 6 0.0 3.0 0.01 0.35 0.11 96 1017.1
20260507151431 36 6 0.0 2.0 0.01 0.35 0.11 95 1017.1
20260507150931 36 6 0.0 2.0 0.01 0.35 0.11 95 1017.2
20260507150429 36 6 0.0 1.0 0.01 0.35 0.11 95 1017.1
20260507145927 35 6 0.0 1.0 0.01 0.35 0.11 95 1017.0
20260507145424 35 6 0.0 1.0 0.01 0.35 0.11 95 1017.1
20260507144925 35 6 0.0 0.0 0.01 0.35 0.11 95 1017.1
20260507144423 35 6 0.0 1.0 0.01 0.35 0.11 95 1017.0
20260507143923 35 6 0.0 1.0 0.00 0.34 0.10 95 1017.0
20260507143420 35 6 0.0 1.0 0.00 0.34 0.10 95 1017.0
20260507142921 35 6 0.0 0.0 0.00 0.34 0.10 95 1016.9
20260507142417 35 6 0.0 2.0 0.00 0.34 0.10 95 1017.0
20260507141917 35 6 0.0 2.0 0.01 0.34 0.10 95 1016.9
20260507141418 35 6 1.0 3.0 0.01 0.34 0.10 95 1016.9
20260507140915 35 6 1.0 3.0 0.02 0.34 0.10 95 1016.8
20260507140413 35 6 1.0 3.0 0.02 0.34 0.10 95 1016.9
20260507135916 35 6 1.0 3.0 0.02 0.34 0.10 95 1016.9
20260507135912 36 6 1.0 3.0 0.03 0.34 0.10 95 1016.8
20260507135516 36 6 1.0 3.0 0.03 0.34 0.10 95 1016.9
20260507135016 36 6 1.0 3.0 0.03 0.34 0.10 95 1016.9
20260507133909 36 6 2.0 4.0 0.03 0.34 0.10 95 1016.9
20260507133409 36 6 1.0 4.0 0.03 0.34 0.10 95 1016.9
20260507132909 36 6 1.0 3.0 0.03 0.34 0.10 95 1016.9
20260507132409 36 6 1.0 3.0 0.03 0.34 0.10 95 1016.9
20260507131907 36 6 0.0 3.0 0.02 0.33 0.09 95 1016.8
20260507131407 36 6 1.0 3.0 0.03 0.33 0.09 95 1016.6
20260507130905 36 6 1.0 3.0 0.02 0.32 0.09 95 1016.8
20260507130405 37 6 1.0 3.0 0.02 0.32 0.08 95 1016.8
20260507125904 37 6 1.0 3.0 0.02 0.32 0.08 95 1016.6
20260507125406 37 6 0.0 2.0 0.01 0.31 0.07 95 1016.6
20260507124905 37 6 0.0 1.0 0.01 0.31 0.07 95 1016.6
20260507124405 37 6 0.0 2.0 0.02 0.31 0.07 95 1016.6
20260507123907 37 6 0.0 2.0 0.02 0.31 0.07 95 1016.6
20260507123902 37 350 0.0 1.0 0.02 0.31 0.07 95 1016.6
20260507123505 37 351 0.0 1.0 0.02 0.31 0.07 95 1016.6
20260507123006 37 350 0.0 1.0 0.02 0.31 0.07 95 1016.8
20260507121904 37 350 0.0 2.0 0.01 0.30 0.06 95 1016.8
20260507121900 37 350 0.0 2.0 0.02 0.31 0.07 95 1016.6
20260507120901 37 350 0.0 1.0 0.01 0.30 0.06 95 1016.8
20260507120359 37 350 0.0 3.0 0.01 0.30 0.06 95 1016.6
20260507115901 37 350 0.0 3.0 0.01 0.30 0.06 95 1016.6
20260507115359 37 352 0.0 1.0 0.01 0.30 0.06 95 1016.8
20260507114856 37 352 0.0 1.0 0.01 0.30 0.06 95 1016.8
20260507114354 37 352 0.0 0.0 0.00 0.29 0.05 95 1016.6
20260507113855 37 352 0.0 0.0 0.00 0.29 0.05 95 1016.6
20260507113353 37 352 0.0 0.0 0.00 0.29 0.05 95 1016.6
20260507112853 37 352 0.0 0.0 0.00 0.29 0.05 95 1016.6
20260507112351 37 352 0.0 0.0 0.00 0.29 0.05 95 1016.6
20260507111854 37 352 0.0 0.0 0.00 0.29 0.05 95 1016.5
20260507111850 37 352 0.0 0.0 0.00 0.29 0.05 95 1016.6
20260507111456 37 352 0.0 0.0 0.00 0.29 0.05 95 1016.5
20260507110350 37 352 0.0 0.0 0.00 0.29 0.05 94 1016.5
20260507105849 37 352 0.0 0.0 0.00 0.29 0.05 94 1016.6
20260507105349 37 352 0.0 1.0 0.00 0.29 0.05 94 1016.5
20260507104847 37 352 0.0 1.0 0.00 0.29 0.05 94 1016.5
20260507104347 37 352 0.0 1.0 0.00 0.29 0.05 94 1016.5
20260507103846 37 352 0.0 3.0 0.00 0.29 0.05 94 1016.5
20260507103347 37 352 1.0 3.0 0.00 0.29 0.05 94 1016.5
20260507102846 37 350 1.0 3.0 0.00 0.29 0.05 94 1016.5
20260507102351 37 356 1.0 3.0 0.00 0.29 0.05 94 1016.6
20260507102347 37 356 1.0 3.0 0.00 0.29 0.05 94 1016.5
20260507101346 37 340 2.0 5.0 0.00 0.29 0.05 94 1016.6
20260507100850 37 314 2.0 5.0 0.00 0.29 0.05 94 1016.5
20260507100846 37 341 2.0 5.0 0.00 0.29 0.05 94 1016.5
20260507095851 38 322 2.0 4.0 0.01 0.29 0.05 94 1016.4
20260507095847 37 296 2.0 5.0 0.01 0.29 0.05 94 1016.5
20260507094846 38 320 1.0 4.0 0.01 0.29 0.05 94 1016.4
20260507094350 38 318 1.0 3.0 0.01 0.29 0.05 94 1016.4
20260507094346 38 342 1.0 4.0 0.01 0.29 0.05 94 1016.4
20260507093350 38 301 1.0 3.0 0.02 0.29 0.05 94 1016.4
20260507093346 38 301 1.0 3.0 0.02 0.29 0.05 94 1016.4
20260507092346 38 301 2.0 6.0 0.02 0.29 0.05 94 1016.3
20260507091851 38 295 1.0 4.0 0.02 0.29 0.05 94 1016.2
20260507091846 38 299 2.0 6.0 0.02 0.29 0.05 94 1016.3
20260507090849 38 301 2.0 3.0 0.03 0.29 0.05 94 1016.1
20260507090845 38 301 2.0 3.0 0.04 0.29 0.05 94 1016.0
20260507085844 38 283 2.0 4.0 0.05 0.28 0.04 94 1016.0
20260507085344 38 280 1.0 4.0 0.06 0.28 0.04 94 1015.9
20260507084845 39 154 0.0 0.0 0.07 0.28 0.04 94 1015.9
20260507084345 39 154 0.0 1.0 0.09 0.28 0.04 94 1015.9
20260507084341 39 154 0.0 1.0 0.10 0.28 0.04 94 1015.9
20260507083341 39 154 0.0 1.0 0.10 0.27 0.03 93 1015.8
20260507082843 39 154 0.0 2.0 0.10 0.27 0.03 93 1015.8
20260507082838 39 154 0.0 2.0 0.10 0.27 0.03 93 1015.8
20260507081834 39 154 0.0 2.0 0.10 0.27 0.03 93 1015.7
20260507081334 39 149 0.0 2.0 0.11 0.27 0.03 93 1015.6
20260507080834 39 149 1.0 4.0 0.10 0.26 0.02 93 1015.6
20260507080333 39 148 2.0 4.0 0.10 0.25 0.01 92 1015.6
20260507075836 39 168 2.0 4.0 0.08 0.23 0.23 92 1015.6
20260507075832 39 174 1.0 5.0 0.08 0.22 0.22 93 1015.6
20260507074829 39 191 1.0 5.0 0.08 0.21 0.21 92 1015.6
20260507074329 40 228 1.0 4.0 0.07 0.19 0.19 93 1015.6
20260507073831 40 228 2.0 4.0 0.07 0.18 0.18 93 1015.5
20260507073827 40 196 1.0 5.0 0.07 0.17 0.17 93 1015.5
20260507072827 40 156 1.0 5.0 0.08 0.17 0.17 93 1015.3
20260507072327 40 119 1.0 5.0 0.08 0.17 0.17 93 1015.2
20260507071827 40 106 2.0 3.0 0.09 0.17 0.17 93 1015.2
20260507071327 40 34 2.0 3.0 0.08 0.16 0.17 93 1015.2
20260507070832 40 299 1.0 3.0 0.08 0.15 0.15 93 1015.1
20260507070827 40 34 1.0 3.0 0.09 0.16 0.16 93 1015.1
20260507065831 40 299 2.0 4.0 0.08 0.15 0.15 94 1015.1
20260507065826 40 297 3.0 5.0 0.08 0.14 0.14 93 1015.0
20260507065430 40 299 3.0 6.0 0.07 0.13 0.13 93 1015.1
20260507064324 40 299 4.0 6.0 0.06 0.12 0.12 94 1015.1
20260507063818 40 286 4.0 7.0 0.06 0.11 0.11 94 1015.0
20260507063322 40 290 2.0 5.0 0.04 0.09 0.09 93 1014.9
20260507063318 40 282 3.0 7.0 0.05 0.10 0.10 94 1015.0
20260507062319 40 276 2.0 4.0 0.05 0.09 0.09 93 1014.8
20260507061818 41 297 2.0 4.0 0.04 0.08 0.08 93 1014.6
20260507061318 41 297 2.0 4.0 0.04 0.08 0.08 93 1014.5
20260507060818 41 293 2.0 4.0 0.03 0.07 0.07 92 1014.5
20260507060320 41 290 2.0 4.0 0.04 0.07 0.07 92 1014.4
20260507055819 41 288 2.0 4.0 0.04 0.07 0.07 92 1014.4
20260507055323 41 278 2.0 4.0 0.03 0.06 0.06 92 1014.3
20260507055319 41 296 2.0 4.0 0.03 0.06 0.06 92 1014.4
20260507054318 41 289 1.0 4.0 0.03 0.06 0.06 92 1014.3
20260507053822 42 269 1.0 3.0 0.02 0.05 0.05 92 1014.2
20260507053818 42 269 1.0 2.0 0.02 0.05 0.05 92 1014.2
20260507052818 42 269 0.0 3.0 0.02 0.05 0.05 91 1014.2
20260507052318 42 269 1.0 3.0 0.01 0.04 0.05 91 1014.1
20260507051819 42 269 1.0 3.0 0.01 0.04 0.04 91 1014.1
20260507051318 42 269 1.0 3.0 0.01 0.04 0.04 90 1014.0
20260507050819 42 269 1.0 3.0 0.01 0.04 0.04 89 1014.0
20260507050319 43 269 2.0 4.0 0.00 0.03 0.03 88 1013.9
20260507045818 43 269 2.0 4.0 0.00 0.03 0.03 88 1013.9
20260507045318 43 274 1.0 3.0 0.00 0.03 0.03 87 1013.9
20260507044818 43 275 1.0 3.0 0.00 0.03 0.03 87 1013.9
20260507044318 43 272 2.0 4.0 0.00 0.03 0.03 86 1013.8
20260507043819 43 272 2.0 4.0 0.00 0.03 0.03 86 1013.8
20260507043318 43 274 2.0 4.0 0.00 0.03 0.03 86 1013.7
20260507042822 43 280 2.0 5.0 0.00 0.03 0.03 85 1013.7
20260507042818 43 280 2.0 5.0 0.00 0.03 0.03 85 1013.7
20260507041821 44 297 1.0 4.0 0.00 0.03 0.03 85 1013.6
20260507041817 44 295 1.0 3.0 0.00 0.03 0.03 85 1013.6
20260507040821 44 295 2.0 4.0 0.00 0.03 0.03 84 1013.6
20260507040817 44 295 2.0 4.0 0.00 0.03 0.03 85 1013.6
20260507035816 44 294 3.0 4.0 0.00 0.03 0.03 84 1013.5
20260507035316 44 270 3.0 5.0 0.00 0.03 0.03 84 1013.5
20260507034814 44 304 3.0 5.0 0.00 0.03 0.03 84 1013.4
20260507034315 44 297 2.0 5.0 0.00 0.03 0.03 84 1013.4
20260507033814 44 297 2.0 5.0 0.00 0.03 0.03 84 1013.4
20260507033311 44 301 2.0 4.0 0.00 0.03 0.03 83 1013.4
20260507032815 44 293 2.0 4.0 0.00 0.03 0.03 83 1013.3
20260507032810 44 310 2.0 4.0 0.00 0.03 0.03 83 1013.3
20260507032416 44 293 2.0 4.0 0.00 0.03 0.03 83 1013.3
20260507031313 44 293 1.0 4.0 0.00 0.03 0.03 83 1013.2
20260507031309 45 299 1.0 3.0 0.00 0.03 0.03 84 1013.2
20260507030312 45 299 1.0 4.0 0.00 0.03 0.03 85 1013.2
20260507030308 45 299 1.0 4.0 0.00 0.03 0.03 85 1013.2
20260507025306 45 332 1.0 5.0 0.00 0.03 0.03 86 1013.2
20260507024804 45 331 2.0 5.0 0.00 0.03 0.03 85 1013.1
20260507024305 45 332 2.0 5.0 0.00 0.03 0.03 85 1013.1
20260507023805 45 331 2.0 5.0 0.00 0.03 0.03 84 1013.0
20260507023304 45 326 2.0 5.0 0.00 0.03 0.03 83 1013.1
20260507022804 46 351 1.0 5.0 0.00 0.03 0.03 83 1013.0
20260507022308 46 268 2.0 5.0 0.00 0.03 0.03 76 1012.9
20260507022306 46 321 2.0 5.0 0.00 0.03 0.03 80 1013.0
20260507021302 46 283 1.0 4.0 0.00 0.03 0.03 76 1012.9
20260507020800 46 264 2.0 4.0 0.00 0.03 0.03 74 1012.9
20260507020258 46 247 2.0 5.0 0.00 0.03 0.03 75 1012.9
20260507015759 46 242 1.0 5.0 0.00 0.03 0.03 75 1012.9
20260507015306 46 212 1.0 5.0 0.00 0.03 0.03 76 1012.8
20260507015258 46 253 1.0 4.0 0.00 0.03 0.03 76 1012.8
20260507014904 45 270 1.0 5.0 0.00 0.03 0.03 80 1012.8
20260507013758 45 217 1.0 5.0 0.01 0.03 0.03 81 1012.8
20260507013302 44 253 2.0 4.0 0.01 0.03 0.03 83 1012.7
20260507013258 45 252 1.0 5.0 0.01 0.03 0.03 81 1012.7
20260507012904 44 253 2.0 4.0 0.01 0.03 0.03 85 1012.7